GFSSW_250_spd_198.txt.gz
Wind_Speed
14 15 17 19 22 24 28 32 37 42 41 38 33 20 22 36 52 67 77 84 90 91 89 85 81 77 72 69 67 66 67 68 62 58 52 52 51 49 52 56 55 53 51 50 50
16 17 18 20 23 25 28 33 37 41 44 41 38 24 15 28 43 59 70 80 88 89 90 86 82 79 74 74 67 65 65 63 61 59 59 59 58 56 54 54 57 57 54 55 55
16 18 19 21 24 26 29 32 37 41 45 42 40 30 13 19 34 51 65 76 83 88 89 87 84 80 75 74 70 69 65 63 61 59 58 62 62 61 60 59 57 59 59 59 60
16 17 20 21 24 27 29 31 35 39 43 42 41 36 18 8 25 42 57 70 79 86 88 87 85 80 77 73 72 72 68 66 58 59 60 62 61 63 62 63 60 60 62 64 64
17 18 19 22 24 26 28 30 32 36 39 43 41 39 26 6 14 31 50 66 75 81 84 84 83 81 77 74 73 70 64 68 62 58 64 64 62 62 65 61 65 65 65 67 68
20 20 20 21 23 25 26 28 30 32 36 39 39 38 33 17 2 22 37 53 67 73 79 80 80 79 76 75 75 71 70 70 66 68 66 63 60 59 57 60 61 65 67 70 70
22 22 22 22 23 23 24 26 28 29 31 35 37 35 33 25 8 13 32 47 60 64 72 73 76 76 76 75 74 73 73 71 67 67 66 65 64 64 59 62 64 64 64 65 66
23 23 23 23 23 22 23 24 25 26 27 29 31 31 29 26 17 10 24 39 52 56 64 65 70 72 73 73 73 73 72 72 67 69 67 69 70 66 67 68 70 70 71 71 70
23 24 24 23 23 22 22 22 23 23 23 24 24 26 23 23 18 13 17 29 41 49 56 57 62 66 68 69 70 71 70 71 69 71 69 72 73 69 72 73 75 77 76 75 75
25 26 26 25 24 24 24 23 22 21 21 21 19 18 18 14 14 10 14 21 31 39 44 47 53 60 64 66 67 67 70 73 74 72 73 75 76 73 73 75 77 78 78 78 78
28 28 27 26 25 26 26 25 23 22 20 18 17 15 12 9 3 6 10 19 27 31 32 37 44 54 59 64 66 68 70 72 73 72 71 71 71 74 73 77 78 80 82 82 82
30 30 29 28 28 29 29 28 26 23 22 20 17 15 14 10 7 6 13 19 24 28 32 36 39 45 51 56 62 65 67 70 71 71 73 74 75 75 74 76 79 82 84 85 86
31 30 31 32 33 33 31 30 29 27 25 23 22 20 18 17 15 15 16 19 26 30 33 35 38 42 46 51 55 59 63 65 67 66 69 67 71 72 75 78 82 83 85 87 88
31 33 36 37 36 35 34 32 31 30 29 28 27 26 25 22 21 21 23 25 27 30 34 40 43 45 47 48 51 54 57 59 62 64 68 67 69 70 74 77 80 83 85 87 88
35 36 37 37 36 36 37 37 35 35 34 32 31 29 29 28 27 28 28 31 33 35 39 41 43 46 50 54 57 58 61 62 64 65 67 70 70 75 74 81 82 84 85 87 88
40 40 38 38 39 39 40 40 39 39 39 37 35 33 32 30 31 32 34 36 38 39 41 44 48 50 52 54 56 59 62 64 66 68 69 70 72 76 76 79 82 85 88 89 90
44 42 41 41 42 42 42 42 42 40 38 37 37 36 35 34 33 34 35 37 40 42 45 47 51 54 57 59 62 64 66 68 69 71 75 72 74 79 80 83 85 87 89 92 93
46 44 43 43 43 43 42 40 39 35 34 33 34 34 34 35 36 36 37 38 41 43 46 49 52 55 59 62 64 68 70 72 74 77 79 78 79 85 86 88 90 93 95 97 98
49 46 44 43 42 39 36 33 31 30 30 30 30 29 29 32 34 34 35 36 39 41 45 48 51 54 57 60 64 67 71 74 77 78 79 81 82 86 88 91 94 97 99 100 101
41 40 38 35 31 29 28 27 27 28 28 30 32 33 33 34 34 36 37 39 40 42 45 48 50 52 55 58 60 63 66 70 74 75 77 76 78 84 85 89 93 96 99 100 101
27 27 28 27 28 29 31 31 33 34 35 37 39 39 40 40 41 42 43 44 45 47 49 52 54 57 59 62 64 67 71 73 75 77 76 76 79 84 87 94 92 97 95 100 102
31 32 34 35 35 35 35 36 37 37 37 39 40 41 42 41 41 43 43 44 45 45 49 53 55 59 63 64 66 70 74 77 79 80 81 85 79 89 94 97 98 99 102 107 108
38 38 39 39 39 40 41 41 40 39 39 40 41 42 44 45 44 41 40 40 40 38 38 41 43 46 50 54 58 62 66 72 75 76 79 85 79 89 95 100 102 103 105 109 113
40 38 40 43 42 44 44 42 42 39 38 38 36 34 35 32 29 28 26 28 31 33 35 37 40 41 45 49 49 52 58 61 63 64 68 72 73 78 84 88 93 96 99 101 108
38 39 41 43 45 43 40 36 34 33 26 23 24 22 21 23 23 26 29 31 32 35 38 40 43 45 50 51 52 56 60 62 65 68 71 69 80 81 83 88 91 95 97 97 97
39 38 37 34 36 36 33 30 25 26 25 24 23 24 24 25 25 28 30 31 35 37 39 41 42 46 51 54 56 59 62 63 68 72 74 75 75 82 78 80 80 79 83 85 86
38 34 26 23 20 16 17 19 20 22 23 22 23 24 26 28 29 31 34 36 38 40 41 44 46 46 51 53 55 57 62 66 70 73 74 72 74 71 67 66 65 66 66 67 68

GFSSW_250_spd_201.txt.gz
Wind_Speed
12 13 15 16 18 19 21 25 28 31 35 41 42 40 38 35 39 49 64 74 81 92 93 92 89 84 81 72 71 71 69 70 67 68 65 58 57 54 53 52 53 53 48 49 48
15 16 17 18 20 21 22 25 28 32 35 41 44 43 41 33 31 38 49 66 80 89 95 95 92 88 83 76 73 67 71 69 70 65 65 59 60 58 58 56 55 54 54 53 55
16 17 18 19 21 23 24 26 28 32 35 40 44 44 42 32 23 29 41 56 73 84 92 94 93 90 86 79 72 72 70 70 73 70 71 64 64 62 61 58 59 51 54 61 62
16 17 19 20 22 24 25 26 28 31 35 38 43 44 42 32 20 21 34 48 65 78 89 93 95 91 87 82 77 76 73 71 66 66 67 70 67 63 65 65 60 61 61 62 63
17 18 20 21 23 24 26 27 28 31 34 37 41 44 42 35 20 13 28 45 60 73 84 91 92 92 87 85 79 79 75 69 68 65 64 63 60 68 68 69 63 71 67 67 68
20 21 21 22 24 24 25 27 29 30 33 36 39 42 42 39 23 8 21 39 53 67 79 86 90 90 87 82 82 78 73 74 70 70 64 61 52 59 56 56 66 70 73 71 70
23 23 22 23 24 25 26 26 28 29 31 33 36 39 40 38 29 12 11 30 45 59 71 78 82 86 84 83 80 77 75 74 75 71 67 65 62 54 60 63 72 69 68 69 70
23 23 23 25 25 26 27 28 28 28 29 31 33 35 37 36 32 19 2 21 37 50 63 71 77 78 82 78 80 78 77 75 76 71 67 69 70 57 71 72 70 69 68 68 68
25 25 26 26 26 26 26 27 28 27 27 28 30 30 32 33 29 23 11 10 27 44 57 64 70 73 77 77 78 78 77 76 75 69 73 73 73 70 77 73 74 75 75 74 75
28 28 29 28 27 26 27 27 29 29 27 26 26 27 26 28 27 22 13 6 17 33 47 54 62 68 72 75 76 77 76 77 77 73 72 74 75 76 73 76 79 79 81 81 81
31 30 30 29 27 27 27 30 31 30 28 26 24 23 23 23 21 18 13 5 12 24 36 43 53 63 68 67 70 74 75 77 76 75 70 76 75 77 78 78 83 88 87 87 87
32 31 31 29 29 30 31 31 32 30 28 27 25 22 20 20 17 13 8 1 7 18 29 36 43 46 54 60 67 72 75 78 78 77 78 81 82 83 85 84 86 88 90 91 92
34 34 33 32 31 33 34 33 31 30 30 28 26 25 22 20 18 12 9 8 11 17 23 26 34 43 48 53 59 66 71 74 76 78 80 82 80 86 86 88 89 92 92 92 92
37 36 35 34 34 36 37 36 34 33 33 32 31 28 26 23 21 18 16 16 18 23 26 31 37 40 44 49 53 62 61 70 75 78 81 81 82 86 91 87 92 92 94 95 95
39 39 39 38 39 39 39 39 37 36 35 35 34 32 30 28 26 24 24 23 23 28 30 35 39 41 45 47 54 53 57 61 64 67 71 74 78 80 88 90 86 89 93 94 95
41 41 41 42 42 43 42 41 40 38 38 37 36 34 33 31 29 28 28 28 30 32 33 37 41 44 47 52 55 56 58 60 63 65 68 74 71 78 90 83 86 89 89 93 96
45 45 46 47 47 46 43 41 41 40 39 38 36 34 32 30 29 31 31 31 33 35 38 41 43 46 49 52 55 57 59 63 65 69 74 71 72 79 88 83 85 89 92 91 96
50 49 49 48 47 46 44 43 42 41 38 35 33 31 28 27 27 29 32 33 35 37 39 43 45 48 51 53 55 59 61 64 67 72 74 73 75 87 85 88 87 89 92 98 94
41 42 43 44 45 43 41 40 38 33 31 30 29 27 25 25 26 28 30 32 34 37 39 42 43 46 50 54 57 59 63 66 68 71 73 76 79 86 92 88 88 92 99 101 102
32 31 31 29 29 29 29 27 25 25 27 27 28 29 29 31 32 32 32 34 36 38 40 42 43 46 48 51 53 57 59 63 65 67 70 72 75 85 91 91 89 90 96 100 102
31 28 27 26 26 26 27 28 30 31 32 34 35 36 37 37 38 38 38 41 41 43 45 47 49 50 52 54 58 61 65 65 67 69 70 71 76 85 88 92 94 92 96 96 96
36 36 35 34 33 33 33 34 35 36 37 38 38 38 39 40 40 41 43 43 43 44 45 47 49 51 54 56 59 62 65 69 69 72 75 80 76 83 93 97 98 100 101 102 102
41 40 38 38 37 36 36 37 39 38 38 39 39 39 39 40 41 41 41 43 45 45 44 44 45 48 52 54 55 58 60 64 66 67 70 73 69 80 86 94 96 99 100 105 108
45 43 42 40 37 37 40 41 40 39 40 36 34 34 32 29 28 25 23 26 27 30 33 36 41 44 47 51 53 53 57 60 63 63 65 69 68 75 80 85 91 94 97 99 101
47 43 42 41 38 39 41 40 40 40 36 31 29 27 28 29 28 28 28 29 31 34 37 39 43 45 51 52 56 57 59 62 64 66 67 70 73 76 82 85 88 92 93 92 92
46 45 43 41 39 39 36 35 35 29 26 26 25 26 27 27 27 27 28 28 30 34 37 41 44 47 53 53 57 58 62 62 65 68 70 71 72 78 74 79 81 82 82 80 79
45 44 42 38 35 33 28 25 21 19 20 22 22 23 23 22 21 23 24 26 29 32 37 41 44 47 53 53 58 58 63 65 66 70 72 71 74 74 72 70 67 63 58 58 56

GFSSW_250_spd_207.txt.gz
Wind_Speed
14 14 15 16 17 17 19 20 22 24 26 28 30 32 34 36 40 44 46 48 47 51 60 71 80 90 89 88 83 77 72 69 69 68 68 66 66 64 61 59 56 56 50 48 51
17 17 18 19 20 21 21 22 24 25 27 29 31 33 35 37 40 43 47 49 50 50 57 68 78 88 94 91 88 81 76 75 72 69 66 69 67 61 57 59 59 56 55 49 49
19 20 21 21 22 22 23 24 25 27 28 30 32 34 36 38 40 43 47 52 52 47 51 63 76 86 93 94 91 86 80 80 76 72 68 71 69 64 54 61 58 58 58 55 53
18 19 20 20 22 22 24 25 26 28 30 32 34 35 36 38 41 44 47 52 49 42 44 56 73 84 90 97 93 90 85 84 77 75 75 68 68 63 55 60 61 62 61 59 59
19 20 20 22 23 24 25 27 28 30 31 33 33 34 36 38 40 43 46 51 45 35 37 49 67 82 89 96 98 95 93 87 83 79 74 75 72 67 61 60 64 66 61 59 62
21 22 24 25 25 25 26 28 30 30 31 33 34 35 37 39 39 42 43 48 40 28 28 42 60 77 88 94 101 95 96 91 84 78 79 75 74 73 69 57 57 65 61 63 63
24 26 27 27 27 27 27 29 30 31 31 33 34 36 37 38 39 41 42 44 37 21 18 32 51 67 81 88 96 98 98 88 82 82 78 76 76 75 76 74 72 65 67 66 70
27 28 28 28 28 29 29 30 31 31 32 33 34 36 37 38 38 38 41 42 39 20 13 22 37 56 73 84 88 92 89 81 83 84 83 78 76 72 74 75 75 76 72 69 73
30 30 30 31 31 31 31 32 32 33 33 33 35 35 36 36 37 37 38 40 40 26 12 14 29 48 65 75 83 87 86 87 89 89 86 80 76 75 74 72 74 77 78 76 80
30 32 33 34 35 35 34 34 34 34 34 34 34 35 35 35 35 35 35 35 36 32 16 8 20 36 53 66 73 80 85 87 90 89 86 81 76 79 65 73 77 78 79 84 77
33 33 34 35 35 36 36 37 38 37 36 36 35 35 35 34 34 33 32 32 30 31 23 11 11 30 48 61 73 82 85 83 83 87 86 83 74 79 77 82 79 74 79 81 78
37 37 38 39 39 38 38 38 38 38 38 38 37 36 35 35 34 32 30 28 26 24 23 13 5 13 28 45 60 69 71 77 85 86 81 76 69 73 80 83 86 81 84 86 81
40 41 41 39 39 40 40 39 39 40 40 39 38 38 37 35 33 32 30 26 22 20 18 17 9 11 22 37 50 62 73 78 78 75 73 76 74 75 81 85 87 89 92 87 83
41 41 42 41 41 40 41 41 41 40 41 40 40 41 38 36 33 31 30 26 22 16 14 16 10 8 14 24 35 51 57 64 69 71 76 83 81 82 92 91 92 93 93 87 86
43 43 43 42 43 43 44 44 44 43 44 45 44 42 39 36 34 32 28 24 22 19 13 15 14 11 10 17 30 39 50 62 67 70 73 79 83 88 92 95 97 95 95 94 96
45 44 44 45 46 48 49 49 49 47 46 47 45 43 39 37 35 33 27 24 22 21 19 20 18 18 16 19 23 30 39 50 59 65 69 75 81 83 94 97 99 97 98 98 99
48 48 48 47 46 45 45 46 46 45 45 44 44 42 38 36 33 28 25 23 23 22 22 23 24 25 25 26 26 29 32 42 51 58 65 67 72 81 88 96 98 99 100 100 100
42 41 39 35 33 33 34 34 35 35 36 36 33 33 30 29 24 24 20 24 21 21 22 24 21 32 31 32 32 36 37 40 47 49 56 64 72 73 79 85 89 92 94 96 98
34 33 34 32 32 33 31 24 22 21 22 24 24 23 20 22 18 21 20 22 23 23 23 24 21 28 34 35 36 41 43 47 49 53 58 68 71 75 78 84 87 87 90 90 90
34 32 34 35 34 32 29 25 24 24 23 24 23 28 23 24 29 25 22 31 25 28 26 30 27 28 34 31 34 40 43 48 51 56 60 67 76 79 82 87 86 90 88 89 91
42 38 41 37 36 34 31 29 28 30 29 29 30 31 30 30 32 30 26 34 27 33 31 33 31 32 36 34 37 41 42 45 49 52 54 58 67 80 81 88 86 86 87 87 86
47 44 49 41 43 40 36 36 33 34 30 32 32 33 34 34 33 34 31 33 30 31 31 29 31 33 37 38 40 44 45 49 51 54 56 60 64 77 84 83 81 81 86 89 91
49 49 49 48 46 43 39 41 39 38 38 36 36 36 36 37 37 35 31 33 28 25 24 22 21 22 23 21 24 31 36 42 45 48 54 59 65 78 76 77 80 83 87 92 94
42 40 41 50 49 47 45 43 42 41 42 41 38 35 37 36 36 32 28 29 23 22 20 21 20 18 18 20 21 23 27 36 44 52 57 63 69 69 72 76 81 87 90 88 90
45 44 41 43 43 44 49 46 43 45 46 42 38 35 36 37 33 27 24 23 22 19 18 16 12 12 17 19 23 29 29 38 37 41 49 59 67 70 73 78 84 87 86 89 91
51 50 44 45 46 50 47 45 42 48 43 40 34 34 33 29 21 20 18 18 17 19 12 9 11 17 18 23 27 32 35 44 49 51 49 51 57 63 64 70 75 76 76 78 78
55 52 48 48 51 43 38 42 38 39 36 35 33 30 25 20 17 17 16 18 16 15 14 16 17 21 25 29 33 37 42 50 57 57 56 56 54 55 60 63 68 65 68 67 68

GFSSW_250_spd_210.txt.gz
Wind_Speed
14 13 14 14 15 15 16 18 19 20 22 23 25 28 30 33 35 37 40 42 46 49 52 56 61 64 67 73 81 83 81 81 79 76 77 75 69 70 63 57 53 54 52 48 47
17 17 17 17 18 19 20 21 22 22 23 25 26 28 31 34 36 39 42 45 49 52 56 61 65 65 67 74 79 86 87 86 82 81 81 77 75 75 69 62 58 55 56 55 53
18 18 18 19 20 21 20 21 22 24 24 26 28 31 34 36 38 42 43 46 49 52 56 60 64 66 68 74 79 84 89 92 90 83 82 80 77 76 74 71 66 62 61 63 62
18 18 19 19 19 20 20 22 23 24 25 27 29 32 35 36 38 40 41 44 47 50 55 60 64 65 65 69 81 85 91 93 87 86 83 81 79 72 72 72 70 66 64 65 65
19 19 19 19 19 21 22 23 24 26 27 29 30 32 35 35 38 40 41 44 46 49 53 58 59 53 59 69 82 85 92 94 92 92 85 82 76 76 77 75 73 70 67 61 64
21 22 22 23 23 24 24 25 26 27 29 30 31 32 35 35 38 39 39 42 45 48 50 53 45 43 54 67 78 88 93 95 94 88 88 82 79 78 75 78 74 74 70 65 69
25 25 26 27 27 26 26 26 27 29 30 32 32 33 35 37 38 39 39 40 41 43 47 43 32 34 43 57 72 84 89 90 91 90 87 85 81 76 73 71 74 78 76 71 73
27 27 27 28 28 28 28 28 30 31 32 33 35 35 36 37 38 39 39 39 40 41 41 37 27 27 38 50 63 79 84 84 87 89 91 89 81 82 81 78 73 78 81 83 67
30 30 30 30 30 31 32 33 33 34 35 36 37 37 37 39 38 39 39 38 38 40 39 36 23 20 28 45 57 69 79 83 91 90 93 90 88 85 80 79 82 74 79 78 78
31 31 32 31 32 33 34 36 37 37 37 39 39 38 38 39 39 38 39 38 36 38 37 35 25 13 20 28 44 61 75 85 91 92 92 88 88 84 81 84 85 89 81 75 82
33 34 34 35 36 37 37 38 40 40 42 42 41 39 38 38 38 38 39 36 35 34 35 32 27 17 7 21 39 56 71 80 84 87 89 86 83 84 86 87 89 89 82 83 86
36 37 38 39 40 40 41 42 40 40 41 42 42 41 39 39 39 39 38 36 34 31 30 26 25 20 12 14 25 41 56 68 75 79 83 84 82 85 85 89 84 90 85 83 85
41 42 43 43 42 42 42 40 40 41 42 43 42 42 41 41 40 40 37 35 33 29 26 23 19 18 13 10 19 29 44 57 65 72 79 80 82 86 90 94 93 91 86 85 87
44 45 45 45 43 42 42 41 42 42 43 44 45 46 45 44 42 40 37 35 34 29 23 25 13 12 10 7 13 17 29 44 55 63 72 78 83 86 96 92 91 92 92 88 87
45 46 46 45 44 43 43 43 44 45 47 49 50 49 47 46 44 40 37 35 34 28 22 23 19 12 11 11 9 12 25 36 49 59 65 79 80 86 86 92 92 92 93 90 88
49 47 47 46 46 46 46 46 47 47 45 45 48 45 44 44 40 36 34 34 31 25 23 20 22 19 14 16 11 13 19 27 37 47 60 70 75 78 83 90 92 93 94 94 92
48 47 47 46 46 45 45 43 39 36 38 39 39 38 36 34 34 25 29 27 24 22 20 20 22 23 21 21 20 18 19 24 30 38 52 59 67 75 82 88 93 93 93 94 94
40 41 41 39 38 36 31 30 29 31 31 27 27 26 21 22 24 18 24 21 21 20 18 17 20 26 22 24 26 25 27 30 31 35 43 51 59 67 75 82 87 91 92 98 101
32 34 36 36 34 32 29 28 27 29 25 21 18 16 16 20 16 17 23 24 22 22 24 22 19 26 25 23 26 29 33 35 37 42 45 48 51 58 62 69 74 79 84 89 92
39 38 38 36 35 33 30 28 29 30 23 23 24 20 22 25 22 19 27 29 25 26 28 25 21 30 26 26 27 28 33 34 39 44 50 53 58 58 61 63 68 72 76 81 84
39 42 43 42 39 37 36 33 32 35 29 30 27 26 25 27 26 24 29 31 30 33 28 29 27 29 28 28 32 32 33 36 38 43 49 53 55 55 60 64 70 74 79 83 88
36 39 43 45 45 44 41 40 36 39 36 35 33 34 33 33 31 28 31 33 35 31 30 28 25 24 23 22 28 32 32 35 37 40 43 51 57 60 62 67 72 75 78 83 87
46 43 40 41 36 40 44 47 43 43 42 39 36 37 37 38 35 30 33 32 31 29 26 23 22 23 16 17 19 21 21 23 25 29 34 39 45 48 56 67 73 78 82 85 88
52 50 48 46 41 41 38 33 40 44 45 42 41 40 41 39 36 31 33 35 27 24 20 20 20 20 17 10 13 14 11 17 23 28 34 38 43 51 56 59 66 74 80 84 87
52 52 53 53 49 43 36 33 34 35 37 44 44 43 43 40 32 31 30 29 22 17 18 18 18 17 15 14 14 13 19 23 28 32 39 44 48 57 61 64 64 68 75 79 82
52 55 53 53 53 50 47 40 40 44 45 45 42 41 40 35 28 26 20 18 16 17 17 16 17 13 12 16 17 19 25 31 36 40 47 50 56 62 65 68 69 66 66 69 74
51 51 51 51 48 48 49 45 45 44 44 41 37 34 36 27 26 20 14 15 17 18 17 15 16 16 17 18 20 23 32 37 44 49 59 61 67 71 72 70 64 60 57 60 63

GFSSW_250_spd_216.txt.gz
Wind_Speed
13 12 12 12 12 12 13 15 17 19 20 21 22 23 23 25 26 28 30 33 35 36 38 40 41 43 45 47 48 50 54 59 64 68 68 63 67 61 59 57 59 56 54 52 48
14 14 14 14 15 15 16 17 18 19 20 21 22 24 24 26 27 29 32 34 36 37 38 41 43 45 47 50 51 53 56 59 63 66 70 67 63 67 65 61 60 63 60 57 59
15 16 17 17 18 19 20 20 22 23 24 25 26 26 27 29 30 31 32 33 36 38 40 43 46 48 50 53 53 55 60 63 66 71 70 66 67 68 72 72 68 69 70 64 64
17 18 20 21 21 22 22 23 23 24 25 25 26 26 28 29 30 31 33 35 37 40 42 44 46 48 52 54 55 56 62 66 72 72 73 73 66 69 72 74 71 77 73 72 73
18 19 21 22 23 23 23 23 24 24 25 25 26 27 29 30 30 32 33 34 37 40 42 45 47 49 51 52 54 55 61 65 72 74 77 81 75 72 74 77 77 78 81 80 80
21 21 22 22 23 24 24 24 25 26 27 28 28 28 30 32 33 33 33 36 38 42 44 46 47 48 50 52 53 55 57 62 69 74 79 85 82 81 83 84 82 76 83 81 84
25 26 26 26 26 27 27 28 29 30 30 30 30 30 32 33 35 36 38 39 41 44 46 47 48 48 50 50 51 53 55 61 67 73 78 87 90 87 90 92 83 84 83 90 88
29 29 29 30 31 31 31 32 32 32 32 32 33 33 34 36 37 40 42 44 46 46 46 47 48 50 51 51 51 51 54 57 65 72 82 89 93 94 96 95 89 93 83 92 94
31 31 32 32 32 32 34 34 35 35 34 35 35 35 36 39 40 42 43 45 46 47 48 49 49 51 52 51 50 50 50 52 56 61 69 78 82 91 95 98 97 86 89 94 96
34 35 35 35 35 35 36 37 37 37 37 39 40 40 40 42 44 45 45 47 48 49 49 50 51 52 51 49 49 47 46 47 45 51 57 63 67 81 87 91 95 89 90 95 100
36 36 36 36 36 37 38 38 39 40 41 42 43 44 44 46 47 46 46 48 49 50 51 53 52 53 51 47 46 43 42 42 37 40 40 51 59 70 77 83 93 90 94 96 101
40 40 39 40 39 39 40 40 41 42 44 46 47 47 47 47 46 47 48 48 49 52 55 55 53 51 49 46 41 40 38 35 27 30 34 46 53 62 68 75 87 93 91 95 96
42 43 43 42 42 43 43 44 45 46 46 48 49 49 48 47 48 48 48 50 52 54 54 54 52 47 44 43 38 35 32 30 25 21 30 39 42 46 57 67 83 89 91 91 93
46 46 46 46 47 48 49 49 48 48 48 49 49 48 47 48 49 49 50 53 52 50 50 49 46 41 37 37 35 32 27 26 24 22 22 29 36 44 50 60 74 84 88 87 87
45 48 49 50 51 51 51 52 51 51 49 48 48 48 49 49 51 51 50 48 46 44 43 41 39 35 32 30 30 30 28 23 24 22 20 22 28 37 44 54 64 75 83 85 85
34 37 42 47 49 51 50 49 49 49 49 47 47 45 45 45 44 41 39 38 38 35 33 32 32 30 26 25 25 25 28 27 23 21 19 21 22 26 32 44 57 66 76 83 86
40 36 32 38 41 42 44 44 44 45 44 42 40 39 40 37 36 33 31 29 26 23 23 24 24 23 25 24 26 25 27 27 26 22 19 19 18 20 28 35 45 57 68 79 83
37 37 35 34 34 36 35 33 35 37 36 35 33 35 33 30 31 28 25 21 22 23 23 24 26 25 28 27 28 32 31 28 27 25 21 19 18 19 20 27 36 46 56 67 78
35 34 35 34 31 33 33 30 29 31 31 30 29 31 29 26 28 29 27 22 25 27 26 27 30 30 31 28 28 33 35 33 31 29 26 22 21 23 26 26 31 38 46 54 63
32 32 34 35 34 31 28 29 34 36 35 33 32 33 32 28 30 32 33 28 27 29 31 31 33 32 34 31 32 33 34 33 32 30 28 28 27 27 29 31 32 35 38 43 50
35 34 35 38 39 35 35 31 30 35 37 39 36 36 38 36 34 36 38 37 35 32 32 33 36 35 33 32 33 33 33 32 30 29 30 30 31 32 32 33 35 37 39 42 47
37 37 36 35 38 42 39 39 38 39 37 32 32 37 42 42 40 40 41 43 40 38 36 39 40 37 31 33 32 31 30 29 29 26 24 22 24 23 22 25 28 31 35 39 45
39 40 37 36 35 37 40 42 43 45 44 41 38 36 33 37 42 45 47 45 45 43 38 42 44 36 31 33 30 28 27 27 26 24 21 15 16 18 21 26 31 36 42 48 54
43 41 40 37 37 37 36 38 40 45 46 47 48 42 35 38 36 34 39 42 45 45 41 41 42 36 31 27 26 27 27 25 21 19 19 19 21 26 30 35 40 46 53 59 65
47 42 44 41 43 42 41 40 44 46 48 48 48 47 45 38 36 34 36 37 38 41 41 39 38 32 27 24 25 27 27 22 19 20 23 27 29 33 38 44 49 53 59 68 72
49 48 47 45 46 46 44 44 42 45 48 51 48 43 46 45 43 44 42 41 45 45 38 33 32 28 23 22 24 25 23 22 22 25 26 30 34 37 43 48 51 57 66 72 75
52 51 50 48 50 50 48 48 48 46 47 46 47 43 44 44 47 47 44 44 48 39 36 30 26 25 23 24 24 23 22 24 26 27 31 36 38 44 49 52 56 64 70 73 65

GFSSW_250_spd_219.txt.gz
Wind_Speed
12 14 15 16 15 15 15 16 16 17 18 18 19 20 20 22 23 24 26 27 28 28 30 31 32 34 36 38 41 44 48 53 56 55 52 55 59 57 62 63 58 61 56 57 56
12 14 15 15 15 13 14 15 15 16 17 18 19 20 21 23 24 25 26 28 30 30 33 35 36 36 38 40 41 44 48 52 54 53 54 55 56 60 63 63 61 63 63 61 57
13 15 16 17 17 16 16 16 17 18 18 19 21 22 23 25 26 27 28 29 30 32 33 35 37 38 40 42 43 46 51 54 55 56 56 56 57 60 64 67 66 64 67 66 65
15 16 18 19 19 19 19 19 19 20 20 21 22 24 25 26 27 28 29 31 31 33 35 36 39 41 43 44 46 48 52 56 57 58 59 63 57 61 63 66 71 70 71 73 73
16 17 18 20 21 22 22 22 22 21 21 22 23 24 25 25 28 29 30 31 33 34 35 37 39 42 44 45 48 50 54 56 58 59 62 64 60 64 65 68 69 71 74 74 75
20 20 20 20 22 22 23 23 23 24 23 24 25 27 27 28 30 30 31 33 35 36 37 39 42 43 46 48 49 51 52 55 57 60 63 65 64 63 64 69 72 76 74 77 81
24 24 23 24 24 24 25 25 26 27 27 27 29 30 30 31 31 32 33 34 37 40 42 44 45 47 47 48 48 50 52 54 56 59 62 63 62 63 67 72 76 76 78 81 82
28 28 27 28 28 29 29 30 30 31 31 31 32 33 33 33 34 34 36 37 39 42 44 47 49 49 49 49 49 51 52 55 57 58 60 61 61 66 69 72 77 81 82 84 87
32 32 31 30 31 32 32 33 33 34 34 34 34 35 36 36 36 38 38 40 42 45 47 49 50 49 50 51 52 54 55 54 54 55 57 59 65 67 70 73 82 87 86 91 91
35 35 34 34 36 36 35 35 36 36 36 36 36 37 39 40 41 43 44 45 46 48 50 50 49 51 52 53 54 56 56 55 54 53 54 55 58 66 70 74 81 90 96 96 93
32 37 37 37 38 38 37 38 39 40 40 40 40 41 42 44 45 46 47 48 49 50 49 50 51 52 53 55 56 57 56 55 52 50 48 49 49 56 61 63 68 76 86 95 99
37 37 38 41 41 42 40 41 41 41 41 42 42 43 45 46 48 49 51 51 50 50 51 52 53 53 55 55 55 55 54 50 46 44 42 42 38 38 45 55 59 56 66 81 90
41 41 41 42 42 44 44 44 44 44 45 46 46 47 48 49 49 49 49 49 50 51 53 54 54 54 53 54 53 50 46 43 42 39 35 32 31 31 35 37 41 39 48 64 78
36 41 44 45 45 46 46 46 47 48 49 50 51 51 50 50 49 49 50 51 51 52 53 52 52 51 48 48 45 43 39 36 35 32 31 28 25 26 27 28 28 35 38 51 65
35 34 35 37 42 45 48 50 49 50 51 52 53 52 51 49 50 51 51 51 50 49 48 45 45 44 41 37 35 35 34 32 29 27 27 28 23 24 26 25 22 27 35 43 55
31 34 36 35 34 33 38 43 47 49 50 51 51 49 48 50 49 49 47 44 44 41 40 40 36 31 30 28 26 27 29 28 27 24 23 25 25 23 24 23 26 23 27 35 46
29 31 35 37 36 37 32 31 37 38 41 43 44 43 43 43 42 41 39 35 34 33 32 27 24 25 25 24 25 28 29 29 29 28 22 23 23 24 26 25 22 22 24 30 38
29 29 34 33 35 35 35 35 32 35 37 36 36 35 36 36 36 36 34 29 31 30 28 26 25 26 28 29 30 33 33 30 28 29 28 27 25 24 27 28 28 24 22 27 31
29 29 32 32 30 33 35 34 32 33 34 33 32 32 32 32 34 34 30 29 30 28 26 26 26 27 28 31 32 32 33 32 30 29 30 28 28 27 28 28 26 27 28 28 28
34 32 32 31 30 28 32 35 34 33 34 35 37 38 36 35 37 38 36 33 31 32 30 30 31 29 31 33 36 34 33 31 30 30 30 30 29 30 29 29 29 27 28 30 32
37 35 32 31 31 30 29 31 36 37 37 37 35 34 37 39 40 42 43 41 39 37 34 33 35 32 34 38 39 37 33 31 29 27 26 26 26 25 27 27 27 27 28 29 31
39 37 36 35 35 34 30 32 31 39 42 41 41 39 39 34 33 37 43 46 45 43 40 38 39 38 37 39 40 37 33 31 28 26 23 23 23 17 15 16 18 21 24 28 32
43 41 41 37 37 36 33 30 32 34 36 40 43 45 46 42 36 37 40 42 41 37 39 42 43 41 40 39 41 37 32 30 27 25 22 19 18 14 17 19 22 26 31 35 39
47 46 43 41 39 39 36 36 36 36 37 37 39 40 43 44 45 45 45 43 42 39 29 27 30 34 37 37 38 36 31 28 25 23 20 19 21 22 22 25 28 32 38 43 46
51 49 46 43 44 41 41 39 40 41 41 41 40 41 42 43 42 44 48 48 44 38 34 35 37 39 41 34 33 30 29 27 26 24 21 21 23 25 28 32 37 41 47 51 55
54 52 48 45 46 45 44 44 44 45 45 44 43 42 42 45 46 44 45 46 46 44 40 40 39 42 39 31 29 27 26 26 26 24 24 25 27 30 35 39 43 47 53 56 60
55 54 51 49 47 46 47 47 47 48 49 47 47 45 46 45 46 43 41 44 45 46 48 44 39 42 33 31 29 25 25 25 26 25 28 30 32 34 38 42 47 54 57 60 65

GFSSW_250_spd_222.txt.gz
Wind_Speed
14 16 17 17 17 18 17 17 17 18 20 21 22 23 23 24 24 25 25 25 25 26 27 28 29 31 32 34 37 38 41 42 42 44 45 46 51 55 56 57 59 60 60 60 60
14 15 18 18 18 17 17 17 17 18 19 20 21 21 23 24 24 24 24 25 25 26 27 28 29 30 32 34 35 38 41 42 42 44 46 48 52 55 58 61 62 64 65 64 64
14 16 17 19 20 19 18 18 19 19 20 20 21 21 22 23 24 24 25 26 26 27 29 29 31 33 34 36 38 41 43 43 45 45 47 48 49 55 58 60 63 63 66 63 64
14 15 18 20 21 22 21 21 20 20 21 21 22 23 24 24 25 26 27 28 28 29 31 32 33 34 35 37 39 41 44 46 47 48 51 50 51 56 57 59 64 67 67 68 68
17 17 16 18 21 23 24 24 23 23 23 23 23 23 24 24 26 27 27 27 29 31 32 33 35 36 37 38 40 42 44 48 49 51 52 51 54 56 58 62 65 67 73 72 75
22 20 20 19 20 21 22 24 25 25 24 24 25 25 25 26 27 28 29 30 31 32 34 35 36 37 38 40 42 45 46 48 51 53 53 53 55 55 57 65 67 69 76 75 77
26 25 24 24 24 24 23 24 24 25 25 26 26 27 28 29 30 30 31 32 33 34 35 36 38 40 42 45 48 49 51 52 53 53 53 54 56 56 57 62 64 69 71 77 80
28 28 28 29 29 28 27 27 27 28 29 29 30 31 31 32 32 33 33 34 36 37 37 38 40 42 44 46 49 51 52 52 51 52 51 54 59 54 58 63 67 70 71 73 79
30 32 31 31 32 31 32 32 32 32 32 33 34 34 35 35 36 36 36 37 38 39 40 42 43 45 47 49 52 52 52 53 52 53 52 55 57 55 58 63 66 69 66 74 79
28 30 34 36 35 34 35 35 35 35 35 36 37 38 37 38 39 39 40 41 42 43 45 47 48 49 51 52 52 52 53 54 54 55 55 55 56 56 56 60 61 64 68 73 79
34 33 32 33 35 38 38 38 38 39 39 39 40 41 42 42 42 42 43 44 45 46 48 49 51 52 53 52 53 55 56 55 55 56 56 56 56 55 54 53 55 62 68 74 81
37 37 38 38 39 36 39 42 42 42 42 41 41 42 42 43 44 44 45 46 47 49 51 52 52 52 51 53 55 57 58 58 56 57 56 54 52 51 50 49 51 57 62 68 73
37 38 41 42 43 43 43 43 44 46 46 45 45 45 45 46 47 49 49 50 51 51 51 52 52 51 53 55 57 57 58 58 56 54 50 46 44 43 45 45 46 45 49 47 54
28 30 33 35 38 43 47 48 48 48 47 47 48 49 50 51 52 52 53 53 52 51 51 51 52 53 54 54 53 53 54 52 49 45 42 40 35 37 37 37 33 31 34 38 41
18 23 26 32 36 35 36 41 46 50 51 50 51 52 52 52 53 54 54 53 51 51 51 50 51 51 49 47 47 46 44 41 39 35 33 29 32 28 30 30 28 25 25 29 36
21 22 25 28 30 34 35 36 36 38 42 47 50 52 52 52 53 53 52 50 49 49 48 45 44 42 42 40 36 34 33 32 31 31 29 25 29 20 30 29 27 27 23 24 26
25 24 25 24 25 30 34 36 38 38 37 35 39 43 44 45 46 45 44 43 42 43 40 38 35 34 34 32 30 30 31 32 32 34 36 34 29 28 29 28 28 26 25 24 21
29 29 29 25 24 29 34 35 35 37 38 38 37 34 35 37 37 38 38 36 36 35 33 33 33 33 33 31 29 31 32 32 32 35 38 38 34 33 30 28 28 27 26 26 25
31 30 31 31 28 28 29 31 32 33 36 37 34 33 34 35 35 36 35 34 34 35 33 34 33 32 33 32 32 31 32 32 33 35 38 37 36 34 33 30 30 29 30 27 25
36 34 33 32 30 28 26 29 31 32 35 36 36 35 35 38 39 39 39 40 37 38 37 37 37 37 37 37 37 36 35 35 36 35 36 35 33 30 30 30 31 31 30 30 30
39 36 35 34 34 32 30 28 30 34 34 37 39 40 40 37 37 36 35 35 37 39 39 39 41 42 41 41 40 39 40 38 37 36 34 34 31 28 28 29 29 30 31 29 25
41 40 39 38 39 38 36 32 32 33 36 37 37 40 42 41 39 41 42 41 38 33 30 28 33 34 40 44 43 42 44 42 37 35 33 30 31 29 25 25 22 19 19 21 24
47 44 44 44 43 43 41 36 35 35 34 36 35 33 33 34 38 42 44 45 45 43 39 38 37 36 33 33 33 32 38 39 36 33 31 29 27 28 25 21 21 22 25 29 33
54 52 49 49 48 47 45 41 37 37 36 37 39 37 34 33 34 36 41 45 47 47 47 44 39 33 31 30 33 36 39 36 33 31 28 28 26 28 26 25 28 30 33 35 38
64 61 57 54 54 51 49 46 42 40 39 39 41 40 38 38 37 38 41 43 46 47 47 47 45 40 37 36 37 39 42 35 31 29 28 28 26 28 28 29 31 33 36 40 43
71 68 63 58 56 53 51 47 45 44 42 42 42 44 41 39 42 42 44 45 47 44 46 47 46 45 44 43 42 41 40 31 31 30 30 29 28 28 29 31 34 38 42 47 51
69 64 61 58 55 54 52 50 47 46 44 43 44 45 44 43 44 45 45 46 47 44 41 44 43 42 45 45 44 44 31 28 30 31 30 29 29 29 32 36 40 44 49 51 56